Weather in Agrinion

Greece     38°37′28″N   21°24′32″E
temp.,
°C
wind,
m/s
gust,
m/s
humid.,
%
clouds,
%
prec.,
mm/h
press.,
hPa
HPBL,
m
24 june, thu
thu2400:00+25ne11450 0.0 101611
03:00+24ne22450 0.0 101611
06:00+23nne22430 0.0 101611
09:00+31ne11280 0.0 1016203
12:00+39sw25160 0.0 10152492
15:00+39wsw76170 0.0 10151856
18:00+38w24173 0.0 10142203
21:00+28sse114483 0.0 101512
25 june, fri
fri2500:00+25ese114828 0.0 101612
03:00+24ne11463 0.0 101511
06:00+24ne214139 0.0 101411
09:00+31ene01302 0.0 1014224
12:00+38wsw23192 0.0 10141517
15:00+38ssw54221 0.0 10131847
18:00+35s22278 0.0 1013819
21:00+27sse115423 0.0 101314
26 june, sat
sat2600:00+26ne11500 0.0 101311
03:00+25ne11470 0.0 101311
06:00+24n22420 0.0 101313
09:00+31nw12320 0.0 1013282
12:00+39w23160 0.0 10122012
15:00+40w671416 0.0 10113692
18:00+38wnw77150 0.0 10102367
21:00+28ne11320 0.0 101113
27 june, sun
sun2700:00+25ne11320 0.0 101212
03:00+24nne22360 0.0 101214
06:00+23ne22380 0.0 101113
09:00+30ssw11290 0.0 1011261
12:00+36sw32190 0.0 10111760
15:00+36ssw54202 0.0 10112142
18:00+35sw332218 0.0 10111742
21:00+25sse22510 0.0 101221
28 june, mon
mon2800:00+24e22490 0.0 101312
03:00+22ene11470 0.0 101311
06:00+21ne11470 0.0 101411
09:00+29ne11330 0.0 1014286
12:00+36s21230 0.0 10131740
15:00+37ssw64200 0.0 10122972
18:00+35sw44200 0.0 10131443
21:00+23se23640 0.0 101445